Regional Weather Roundup
Issued by NWS

Home | Current Version | Previous Version | Text Only | Print | Product List | Glossary Off
Versions: 1 2 3 4 5 6 7 8 9 10 11 12 13 14 15 16 17 18 19 20 21 22 23 24 25 26 27 28 29 30 31 32 33 34 35 36 37 38 39 40 41 42 43 44 45 46 47 48 49 50

000
ASUS43 KMKX 220714
RWRWI

WISCONSIN REGIONAL WEATHER ROUNDUP
NATIONAL WEATHER SERVICE MILWAUKEE/SULLIVAN WI
200 AM CDT FRI MAY 22 2015

NOTE: "FAIR" INDICATES FEW OR NO CLOUDS BELOW 12,000 FEET WITH NO
SIGNIFICANT WEATHER AND/OR OBSTRUCTIONS TO VISIBILITY.

WIZ001-002-006>008-014>016-023>028-220800-
NORTHWEST WISCONSIN

CITY           SKY/WX    TMP DP  RH WIND       PRES   REMARKS
SUPERIOR ARPT  CLEAR     38  35  89 CALM      30.12R
ASHLAND        CLEAR     39  34  82 W5        30.11R
HAYWARD        CLEAR     38  33  82 CALM      30.11R
SIREN          CLEAR     40  35  84 CALM      30.12S
CUMBERLAND     CLEAR     43  37  81 N6        30.11R
RICE LAKE      CLEAR     43  39  85 CALM      30.12R
CHETEK         CLEAR     44  40  86 CALM      30.10R
LADYSMITH      CLEAR     40  38  92 CALM      30.12R
EAU CLAIRE     CLEAR     44  38  79 CALM      30.09R
MENOMONIE      CLEAR     50  38  62 CALM      30.10R
NEW RICHMOND   CLEAR     46  36  68 NE3       30.11R
OSCEOLA        CLEAR     43  38  83 CALM      30.14R
$$

WIZ003>005-009-010-017-018-220800-
NORTH CENTRAL WISCONSIN

CITY           SKY/WX    TMP DP  RH WIND       PRES   REMARKS
MANITOWISH WTR CLEAR     34  33  97 CALM      30.10R
ARBOR VITAE    FAIR      38  34  84 CALM      30.10R
WOODRUFF       FAIR      38  34  84 CALM      30.10R
RHINELANDER    CLEAR     39  31  72 E6        30.10R WCI  35
EAGLE RIVER    CLEAR     40  26  56 CALM      30.10S
LAND O LAKES   FAIR      32  30  93 CALM      30.11R
PHILLIPS       CLEAR     35  34  96 CALM      30.10R
TOMAHAWK       CLEAR     31  29  93 CALM      30.10R
MEDFORD        CLEAR     38  35  90 CALM      30.09R
MERRILL        CLEAR     36  34  92 CALM      30.10R
$$

WIZ029-030-035-036-043>047-220800-
CENTRAL WISCONSIN

CITY           SKY/WX    TMP DP  RH WIND       PRES   REMARKS
WAUSAU         CLEAR     41  35  79 CALM      30.08R
MOSINEE        CLEAR     43  36  75 CALM      30.10R
MARSHFIELD     CLEAR     46  32  58 NE3       30.09R
STEVENS POINT  CLEAR     37  34  89 CALM      30.10R
WAUPACA        CLEAR     41  36  81 N5        30.10R
WAUTOMA        CLEAR     40  38  93 CALM      30.10R
WISC RAPIDS    CLEAR     42  34  73 CALM      30.10R
CAMP DOUGLAS   CLEAR     39  39 100 CALM      30.08R
$$

WIZ011>013-019>022-031-037>040-048>050-220800-
NORTHEAST WISCONSIN

CITY           SKY/WX    TMP DP  RH WIND       PRES   REMARKS
ANTIGO         CLEAR     40  30  67 SE8       30.10R WCI  35
SHAWANO        CLEAR     41  38  87 CALM      30.11R
OCONTO         CLEAR     34  34 100 CALM      30.10R
STURGEON BAY   CLEAR     39  28  65 CALM      30.11S
GREEN BAY      CLEAR     42  34  73 N3        30.10R
MANITOWOC      CLEAR     39  34  82 CALM      30.09R
APPLETON       CLEAR     45  27  49 E3        30.09R
CLINTONVILLE   CLEAR     37  37 100 NE3       30.10R
OSHKOSH        CLEAR     48  30  49 SE3       30.08R
$$

WIZ032>034-041-042-053>061-220800-
SOUTHWEST WISCONSIN

CITY           SKY/WX    TMP DP  RH WIND       PRES   REMARKS
LA CROSSE      CLEAR     50  42  74 SE3       30.08R
SPARTA         CLEAR     37  36  96 CALM      30.10R
VIROQUA        CLEAR     51  37  56 CALM      30.08R
BOSCOBEL       CLEAR     43  39  86 CALM      30.09R
PRAIRIE DU CHI CLEAR     46  39  79 E3        30.08R
PLATTEVILLE    CLEAR     50  38  64 N5        30.07R
$$

WIZ056-057-062-063-064-067-068-220800-
SOUTH CENTRAL WISCONSIN

CITY           SKY/WX    TMP DP  RH WIND       PRES   REMARKS
REEDSBURG      CLEAR     49  40  69 CALM      30.08R
BARABOO/DELLS  CLEAR     47  39  72 CALM      30.08R
LONE ROCK      CLEAR     47  41  80 W3        30.08R
MINERAL POINT  CLEAR     54  36  50 N7        30.07S
MADISON        CLEAR     48  36  63 E5        30.07R
MIDDLETON      CLEAR     50  38  63 CALM      30.08S
WATERTOWN      CLEAR     45  33  62 E5        30.07R
MONROE         CLEAR     54  39  58 N6        30.06R
JANESVILLE     CLEAR     52  41  66 NE13      30.05R
$$

WIZ051-052-058>065-066-070>072-220800-
SOUTHEAST WISCONSIN

CITY           SKY/WX    TMP DP  RH WIND       PRES   REMARKS
MILWAUKEE      CLEAR     47  33  58 N8        30.08R
WAUKESHA       CLEAR     45  32  61 NE5       30.09R
MILWAUKEE/TIMM CLEAR     46  30  53 CALM      30.09R
RACINE         CLEAR     47  36  65 NE9       30.07R
BURLINGTON     CLEAR     46  35  67 N5        30.07R
KENOSHA        CLEAR     46  40  79 N7        30.06R
FOND DU LAC    CLEAR     42  31  64 CALM      30.08R
SHEBOYGAN      CLEAR     39  34  82 NW3       30.08S
WEST BEND      CLEAR     41  34  75 CALM      30.08S
JUNEAU         CLEAR     45  30  55 E5        30.09R
$$

LSZ147-162-220800-
LAKE SUPERIOR

STATION/POSITION TIME  TEMP    WIND        PRES    WAVE
                       AIR SEA DIR/SP/G            HT/PER
                 (UTC) (F)     (DEG/KT/KT) (MB)    (FT/S)
W MID LAKE BUOY  0650   39 36   90/  4/  4   N/A     0
DEVILS ISLAND    0700   44      30/  3/  4   N/A
PORT WING        0540   44     180/  3/  4   N/A
SAXON HARBOR     0640   38     190/  2/  3   N/A
$$

LMZ867-665-643>646-220800-
LAKE MICHIGAN

STATION/POSITION TIME  TEMP    WIND        PRES    WAVE
                       AIR SEA DIR/SP/G            HT/PER
                 (UTC) (F)     (DEG/KT/KT) (MB)    (FT/S)
CHAMBERS ISLAND  0600   43     300/  2/  5   N/A
N MID LAKE BUOY  0650   40 36  290/  8/ 10   N/A     1/ 3
NORTHPORT PIER   0600   46     330/  4/  7   N/A
SISTER BAY       0647   44      CALM  /  5   N/A
KEWAUNEE LAKESHO 0600                        N/A
SHEBOYGAN LAKESH 0700           10/  6/  7   N/A
PORT WASHINGTON  0600   50      20/  4/  7   N/A
ATWATER BUOY     0600   46 44  350/ 10/ 12   N/A
MILWAUKEE LAKESH 0600   50      20/ 11/ 14   N/A
S MID LAKE BUOY  0650   43 38   20/  8/ 10   N/A     1
KENOSHA   LAKESH 0700   49      10/ 13/ 17   N/A
$$

TC  - TEMPERATURE IN CELSIUS
VSB - VISIBILITY IN STATUTE MILES
WCI - WIND CHILL INDEX
HX  - HEAT INDEX



USA.gov is the U.S. government's official web portal to all federal, state and local government web resources and services.